Weather History for Lamar, CO

Change the Weather History Date:

Saturday, May 26, 2012

  Actual Average Record
Temperature  
Mean Temperature 84 °F 66 °F  
Max Temperature 98 °F 81 °F 102 °F (1942)
Min Temperature 70 °F 50 °F 33 °F (1992)
Degree Days  
Heating Degree Days 0 2  
Month to date heating degree days 78 131  
Since 1 July heating degree days 4946 5531  
Cooling Degree Days 19 3  
Month to date cooling degree days 59 39  
Year to date cooling degree days 77 44  
Growing Degree Days 34 (Base 50)    
Moisture  
Dew Point 38 °F    
Average Humidity 30    
Maximum Humidity 49    
Minimum Humidity 11    
Precipitation  
Precipitation 0.00 in 0.09 in 1.47 in (1944)
Month to date precipitation 0.19 1.53  
Year to date precipitation 2.11 4.36  
Snow  
Snow 0.00 in - - ()
Month to date snowfall 0.0  
Snow Depth 0.00 in    
Sea Level Pressure  
Sea Level Pressure 29.52 in    
Wind  
Wind Speed 26 mph (South)    
Max Wind Speed 44 mph    
Max Gust Speed 54 mph    
Visibility 10 miles    
Events      
T = Trace of Precipitation, MM = Missing Value Source: NWS Daily Summary

Daily Weather History Graph

Daily Weather History Graph

Search for Another Location

Airport:

Trip Planner

Search our weather history database for the weather conditions in past years. The results will help you decide how hot, cold, wet, or windy it might be!

Date:

Astronomy

May. 26, 2012 Rise Set
Actual Time 5:32 AM MDT 8:03 PM MDT
Civil Twilight 5:01 AM MDT 8:34 PM MDT
Nautical Twilight 4:23 AM MDT 9:12 PM MDT
Astronomical Twilight 3:41 AM MDT 9:54 PM MDT
Moon 10:33 AM MDT (5/26) No Moon Set
Length of Visible Light 15h 32m
Length of Day
14h 31m
Waxing Crescent, 29% of the Moon is Illuminated
May 26
Waxing Crescent
May 28
First Quarter
Jun 4
Full
Jun 11
Last Quarter
Jun 19
New

Hourly Weather History & Observations

Time (MDT) Temp. Dew Point Humidity Pressure Visibility Wind Dir Wind Speed Gust Speed Precip Events Conditions
12:53 AM 73.0 °F 25.0 °F 17% 29.56 in 10.0 mi South 15.0 mph - N/A   Clear
1:53 AM 70.0 °F 25.0 °F 18% 29.57 in 10.0 mi SSE 19.6 mph 25.3 mph N/A   Clear
2:53 AM 70.0 °F 25.0 °F 18% 29.57 in 10.0 mi South 19.6 mph - N/A   Clear
3:53 AM 73.0 °F 21.0 °F 14% 29.57 in 10.0 mi SSW 19.6 mph - N/A   Clear
4:53 AM 72.0 °F 21.9 °F 15% 29.58 in 10.0 mi SSW 15.0 mph - N/A   Clear
5:53 AM 71.1 °F 37.0 °F 29% 29.58 in 10.0 mi SSW 16.1 mph - N/A   Clear
6:53 AM 75.0 °F 43.0 °F 32% 29.58 in 10.0 mi SSW 20.7 mph - N/A   Clear
7:53 AM 81.0 °F 45.0 °F 28% 29.58 in 10.0 mi SSW 12.7 mph - N/A   Clear
8:53 AM 88.0 °F 41.0 °F 19% 29.59 in 10.0 mi SSW 17.3 mph 26.5 mph N/A   Clear
9:53 AM 88.0 °F 48.0 °F 25% 29.59 in 10.0 mi South 24.2 mph 29.9 mph N/A   Clear
10:53 AM 90.0 °F 46.0 °F 22% 29.60 in 9.0 mi South 25.3 mph 35.7 mph N/A   Clear
11:53 AM 93.0 °F 43.0 °F 18% 29.59 in 10.0 mi South 19.6 mph 38.0 mph N/A   Clear
12:53 PM 95.0 °F 39.9 °F 15% 29.54 in 10.0 mi South 23.0 mph 39.1 mph N/A   Clear
1:53 PM 96.1 °F 36.0 °F 12% 29.52 in 10.0 mi South 31.1 mph 46.0 mph N/A   Clear
2:53 PM 97.0 °F 34.0 °F 11% 29.48 in 10.0 mi South 28.8 mph 44.9 mph N/A   Clear
3:53 PM 97.0 °F 34.0 °F 11% 29.44 in 10.0 mi South 31.1 mph 49.5 mph N/A   Clear
4:53 PM 96.1 °F 36.0 °F 12% 29.41 in 9.0 mi South 35.7 mph 47.2 mph N/A   Clear
5:53 PM 93.0 °F 39.0 °F 15% 29.41 in 9.0 mi South 39.1 mph 50.6 mph N/A   Clear
6:53 PM 91.9 °F 41.0 °F 17% 29.39 in 9.0 mi South 33.4 mph 46.0 mph N/A   Clear
7:43 PM 86.0 °F 37.4 °F 18% 29.59 in 4.0 mi South 39.1 mph 50.6 mph N/A   Haze
7:53 PM 82.9 °F 41.0 °F 23% 29.42 in 9.0 mi South 31.1 mph 52.9 mph N/A   Scattered Clouds
8:53 PM 80.1 °F 44.1 °F 28% 29.40 in 10.0 mi South 32.2 mph 44.9 mph N/A   Clear
9:53 PM 78.1 °F 43.0 °F 29% 29.44 in 10.0 mi South 28.8 mph 36.8 mph N/A   Clear
10:53 PM 72.0 °F 48.9 °F 44% 29.49 in 10.0 mi SSE 32.2 mph 47.2 mph N/A   Clear
11:53 PM 72.0 °F 51.1 °F 48% 29.50 in 9.0 mi South 29.9 mph 42.6 mph N/A   Clear